QPF
0.01 0.03 0.04 0.05 0.06 0.05 0.03 0.03 0.05 0.05 0.05 0.06 0.07 0.08 0.08 0.09 0.09 0.10 0.10 0.10 0.10 0.09 0.08 0.08 0.09 0.09 0.08 0.07 0.07 0.08 0.10 0.11 0.10 0.10 0.10 0.09 0.08 0.08 0.10 0.13 0.16 0.17 0.14
0.02 0.03 0.04 0.05 0.05 0.04 0.03 0.03 0.06 0.04 0.04 0.04 0.06 0.08 0.07 0.08 0.08 0.07 0.08 0.09 0.10 0.08 0.07 0.07 0.08 0.08 0.06 0.07 0.08 0.08 0.07 0.09 0.10 0.10 0.10 0.09 0.08 0.07 0.09 0.10 0.12 0.13 0.13
0.02 0.02 0.02 0.03 0.04 0.05 0.04 0.03 0.04 0.03 0.03 0.03 0.06 0.07 0.08 0.08 0.08 0.07 0.06 0.07 0.07 0.05 0.05 0.05 0.05 0.06 0.04 0.05 0.06 0.07 0.07 0.08 0.09 0.09 0.09 0.09 0.09 0.09 0.09 0.10 0.09 0.09 0.09
0.02 0.01 0.01 0.02 0.05 0.07 0.06 0.05 0.04 0.03 0.02 0.03 0.05 0.06 0.06 0.06 0.06 0.06 0.07 0.07 0.07 0.04 0.03 0.04 0.05 0.05 0.03 0.04 0.05 0.06 0.08 0.09 0.09 0.10 0.09 0.11 0.12 0.12 0.12 0.11 0.10 0.09 0.08
0.03 0.02 0.02 0.03 0.05 0.11 0.15 0.10 0.05 0.02 0.02 0.02 0.03 0.04 0.03 0.04 0.05 0.07 0.07 0.06 0.06 0.05 0.05 0.06 0.06 0.07 0.07 0.07 0.07 0.09 0.10 0.11 0.11 0.12 0.11 0.12 0.13 0.14 0.12 0.12 0.10 0.11 0.11
0.03 0.03 0.03 0.03 0.04 0.05 0.06 0.05 0.03 0.02 0.02 0.02 0.02 0.02 0.03 0.03 0.03 0.04 0.04 0.05 0.06 0.06 0.07 0.07 0.07 0.07 0.08 0.10 0.10 0.10 0.10 0.09 0.10 0.10 0.10 0.10 0.10 0.10 0.10 0.11 0.11 0.11 0.12
0.02 0.03 0.04 0.04 0.04 0.03 0.03 0.04 0.03 0.03 0.03 0.03 0.02 0.02 0.02 0.04 0.04 0.04 0.04 0.05 0.05 0.05 0.05 0.05 0.05 0.06 0.07 0.08 0.09 0.09 0.09 0.08 0.07 0.06 0.06 0.08 0.10 0.09 0.10 0.11 0.14 0.14 0.13
0.02 0.03 0.03 0.04 0.04 0.03 0.04 0.04 0.03 0.03 0.02 0.02 0.03 0.03 0.03 0.04 0.04 0.04 0.04 0.03 0.02 0.02 0.02 0.03 0.04 0.04 0.04 0.04 0.03 0.03 0.04 0.04 0.05 0.04 0.05 0.06 0.07 0.07 0.08 0.11 0.13 0.13 0.12
0.03 0.03 0.03 0.03 0.03 0.03 0.02 0.02 0.02 0.01 0.01 0.02 0.02 0.03 0.04 0.05 0.06 0.05 0.04 0.02 0.01 0.01 0.02 0.03 0.03 0.02 0.02 0.03 0.02 0.02 0.03 0.03 0.03 0.02 0.02 0.02 0.03 0.03 0.04 0.05 0.06 0.07 0.08
0.04 0.03 0.04 0.03 0.03 0.03 0.02 0.02 0.01 0.02 0.03 0.03 0.03 0.03 0.04 0.05 0.04 0.03 0.03 0.02 0.02 0.02 0.02 0.02 0.02 0.01 0.01 0.01 0.01 0.00 0.00 0.00 0.00 0.01 0.01 0.02 0.01 0.02 0.02 0.02 0.03 0.04 0.05
0.03 0.03 0.03 0.03 0.04 0.04 0.03 0.02 0.02 0.02 0.02 0.01 0.02 0.02 0.03 0.03 0.03 0.03 0.03 0.03 0.03 0.02 0.01 0.01 0.01 0.01 0.01 0.01 0.00 0.00 0.00 0.01 0.00 0.01 0.01 0.01 0.01 0.02 0.02 0.02 0.02 0.02 0.02
0.03 0.02 0.03 0.02 0.04 0.05 0.04 0.04 0.04 0.02 0.01 0.01 0.01 0.02 0.02 0.01 0.02 0.03 0.02 0.02 0.02 0.02 0.01 0.01 0.01 0.01 0.00 0.01 0.01 0.01 0.01 0.02 0.01 0.00 0.00 0.00 0.01 0.01 0.01 0.01 0.01 0.01 0.01
0.03 0.03 0.03 0.03 0.03 0.04 0.04 0.04 0.03 0.02 0.02 0.02 0.01 0.02 0.02 0.02 0.02 0.03 0.02 0.01 0.01 0.01 0.01 0.02 0.01 0.01 0.01 0.01 0.01 0.02 0.02 0.02 0.01 0.00 0.00 0.00 0.01 0.01 0.01 0.01 0.01 0.01 0.01
0.03 0.02 0.01 0.01 0.01 0.02 0.02 0.03 0.04 0.04 0.04 0.03 0.02 0.02 0.03 0.02 0.02 0.03 0.03 0.02 0.02 0.02 0.02 0.02 0.02 0.02 0.01 0.01 0.01 0.01 0.01 0.01 0.01 0.01 0.01 0.01 0.01 0.01 0.02 0.02 0.02 0.02 0.02
0.04 0.03 0.03 0.03 0.02 0.02 0.02 0.02 0.03 0.03 0.04 0.03 0.02 0.03 0.04 0.04 0.05 0.05 0.04 0.04 0.05 0.04 0.03 0.03 0.03 0.02 0.01 0.01 0.01 0.01 0.01 0.02 0.02 0.02 0.02 0.02 0.02 0.02 0.02 0.02 0.02 0.01 0.01
0.04 0.04 0.04 0.05 0.04 0.05 0.04 0.03 0.04 0.04 0.03 0.02 0.03 0.03 0.03 0.03 0.03 0.02 0.02 0.02 0.02 0.02 0.02 0.02 0.02 0.02 0.01 0.01 0.01 0.01 0.01 0.01 0.01 0.01 0.01 0.01 0.01 0.01 0.01 0.01 0.01 0.02 0.02
0.06 0.05 0.05 0.05 0.05 0.05 0.04 0.04 0.03 0.03 0.02 0.02 0.02 0.02 0.02 0.02 0.01 0.01 0.01 0.01 0.01 0.01 0.01 0.01 0.01 0.01 0.01 0.01 0.01 0.01 0.01 0.01 0.01 0.01 0.01 0.01 0.01 0.01 0.01 0.02 0.02 0.02 0.02
0.07 0.06 0.05 0.04 0.03 0.04 0.04 0.04 0.03 0.02 0.01 0.01 0.02 0.02 0.02 0.02 0.02 0.01 0.01 0.01 0.01 0.01 0.01 0.00 0.01 0.01 0.01 0.01 0.01 0.00 0.00 0.00 0.00 0.00 0.01 0.01 0.01 0.01 0.01 0.01 0.01 0.01 0.02
0.04 0.03 0.03 0.03 0.03 0.03 0.03 0.04 0.03 0.02 0.01 0.01 0.01 0.01 0.02 0.02 0.02 0.02 0.02 0.01 0.01 0.01 0.01 0.01 0.01 0.01 0.01 0.01 0.00 0.00 0.00 0.00 0.00 0.00 0.01 0.01 0.01 0.02 0.02 0.01 0.01 0.02 0.02
0.02 0.03 0.03 0.04 0.04 0.04 0.04 0.03 0.02 0.02 0.01 0.02 0.02 0.01 0.01 0.01 0.01 0.01 0.01 0.02 0.02 0.02 0.01 0.01 0.01 0.01 0.01 0.00 0.00 0.00 0.01 0.01 0.01 0.01 0.01 0.01 0.02 0.02 0.02 0.02 0.03 0.03 0.03
0.02 0.02 0.02 0.02 0.03 0.03 0.03 0.02 0.02 0.02 0.02 0.02 0.01 0.01 0.01 0.01 0.01 0.01 0.01 0.01 0.01 0.01 0.02 0.01 0.01 0.01 0.01 0.01 0.00 0.00 0.00 0.00 0.00 0.01 0.01 0.01 0.01 0.01 0.01 0.01 0.01 0.02 0.02
0.01 0.01 0.01 0.02 0.02 0.02 0.02 0.02 0.01 0.01 0.01 0.01 0.01 0.01 0.02 0.01 0.01 0.01 0.01 0.01 0.02 0.02 0.01 0.01 0.01 0.00 0.00 0.00 0.00 0.00 0.00 0.00 0.00 0.00 0.00 0.01 0.01 0.01 0.01 0.01 0.01 0.01 0.01
0.01 0.01 0.01 0.01 0.01 0.01 0.01 0.01 0.01 0.01 0.00 0.00 0.01 0.01 0.01 0.01 0.01 0.01 0.01 0.01 0.01 0.01 0.01 0.01 0.01 0.01 0.01 0.00 0.00 0.00 0.00 0.00 0.00 0.00 0.00 0.01 0.01 0.01 0.01 0.01 0.01 0.01 0.01
0.01 0.01 0.01 0.01 0.01 0.01 0.01 0.01 0.01 0.01 0.01 0.01 0.01 0.01 0.01 0.01 0.01 0.01 0.00 0.00 0.00 0.00 0.00 0.00 0.00 0.00 0.00 0.00 0.00 0.00 0.00 0.00 0.00 0.00 0.00 0.01 0.01 0.01 0.01 0.01 0.01 0.01 0.01
0.01 0.01 0.01 0.01 0.01 0.01 0.01 0.01 0.01 0.01 0.01 0.01 0.01 0.00 0.00 0.00 0.00 0.00 0.00 0.00 0.00 0.00 0.00 0.01 0.01 0.00 0.00 0.00 0.00 0.00 0.00 0.00 0.00 0.00 0.00 0.01 0.01 0.01 0.01 0.01 0.01 0.01 0.01
0.01 0.01 0.01 0.01 0.01 0.01 0.01 0.00 0.00 0.00 0.01 0.00 0.01 0.01 0.00 0.00 0.01 0.01 0.01 0.01 0.01 0.01 0.01 0.02 0.02 0.01 0.01 0.00 0.00 0.00 0.00 0.00 0.00 0.01 0.01 0.01 0.01 0.01 0.01 0.01 0.01 0.01 0.01
MSLP
1014.44 1014.70 1014.99 1015.26 1015.47 1015.60 1015.66 1015.69 1015.70 1015.75 1015.84 1015.99 1016.18 1016.39 1016.58 1016.74 1016.84 1016.88 1016.88 1016.87 1016.88 1016.93 1017.04 1017.21 1017.42 1017.66 1017.89 1018.07 1018.20 1018.25 1018.23 1018.16 1018.04 1017.91 1017.77 1017.65 1017.55 1017.46 1017.38 1017.32 1017.28 1017.24 1017.22
1014.51 1014.75 1015.01 1015.24 1015.42 1015.53 1015.59 1015.61 1015.64 1015.70 1015.81 1015.97 1016.16 1016.37 1016.56 1016.71 1016.80 1016.84 1016.83 1016.80 1016.78 1016.80 1016.87 1016.99 1017.16 1017.35 1017.53 1017.69 1017.80 1017.86 1017.86 1017.81 1017.74 1017.66 1017.58 1017.52 1017.48 1017.46 1017.45 1017.45 1017.46 1017.47 1017.48
1014.61 1014.83 1015.05 1015.24 1015.39 1015.48 1015.52 1015.55 1015.60 1015.67 1015.80 1015.98 1016.19 1016.41 1016.61 1016.76 1016.86 1016.89 1016.88 1016.85 1016.82 1016.81 1016.85 1016.93 1017.05 1017.19 1017.33 1017.44 1017.52 1017.56 1017.56 1017.52 1017.47 1017.42 1017.39 1017.39 1017.41 1017.45 1017.52 1017.60 1017.69 1017.78 1017.87
1014.68 1014.88 1015.07 1015.23 1015.34 1015.40 1015.44 1015.47 1015.53 1015.63 1015.78 1015.99 1016.22 1016.46 1016.68 1016.84 1016.96 1017.01 1017.01 1016.98 1016.95 1016.93 1016.95 1017.00 1017.09 1017.18 1017.27 1017.35 1017.38 1017.39 1017.36 1017.32 1017.27 1017.23 1017.23 1017.26 1017.33 1017.44 1017.58 1017.74 1017.92 1018.11 1018.30
1014.68 1014.87 1015.04 1015.16 1015.24 1015.28 1015.31 1015.36 1015.43 1015.56 1015.75 1015.98 1016.24 1016.51 1016.74 1016.93 1017.06 1017.14 1017.16 1017.15 1017.14 1017.13 1017.15 1017.19 1017.25 1017.31 1017.37 1017.40 1017.40 1017.36 1017.30 1017.23 1017.16 1017.12 1017.11 1017.16 1017.26 1017.41 1017.61 1017.86 1018.13 1018.42 1018.72
1014.60 1014.80 1014.95 1015.05 1015.11 1015.14 1015.17 1015.23 1015.33 1015.49 1015.70 1015.97 1016.26 1016.54 1016.80 1017.01 1017.16 1017.26 1017.31 1017.33 1017.34 1017.36 1017.40 1017.44 1017.50 1017.55 1017.58 1017.58 1017.55 1017.47 1017.38 1017.27 1017.16 1017.09 1017.07 1017.11 1017.21 1017.39 1017.63 1017.93 1018.27 1018.66 1019.07
1014.46 1014.67 1014.82 1014.92 1014.98 1015.02 1015.06 1015.14 1015.27 1015.46 1015.70 1015.99 1016.30 1016.59 1016.86 1017.08 1017.25 1017.36 1017.44 1017.49 1017.54 1017.59 1017.65 1017.72 1017.79 1017.85 1017.88 1017.87 1017.81 1017.71 1017.57 1017.43 1017.29 1017.18 1017.13 1017.14 1017.23 1017.40 1017.65 1017.98 1018.37 1018.82 1019.31
1014.28 1014.53 1014.71 1014.84 1014.91 1014.98 1015.05 1015.16 1015.32 1015.54 1015.80 1016.10 1016.41 1016.70 1016.96 1017.17 1017.33 1017.46 1017.55 1017.62 1017.70 1017.79 1017.89 1017.99 1018.09 1018.17 1018.20 1018.19 1018.13 1018.02 1017.87 1017.70 1017.53 1017.40 1017.31 1017.28 1017.34 1017.49 1017.72 1018.05 1018.45 1018.92 1019.45
1014.14 1014.45 1014.69 1014.86 1014.98 1015.09 1015.21 1015.35 1015.54 1015.78 1016.05 1016.34 1016.62 1016.89 1017.12 1017.30 1017.45 1017.56 1017.65 1017.74 1017.84 1017.95 1018.08 1018.22 1018.35 1018.46 1018.52 1018.53 1018.48 1018.37 1018.23 1018.06 1017.88 1017.73 1017.61 1017.56 1017.59 1017.70 1017.90 1018.19 1018.56 1019.02 1019.54
1014.09 1014.47 1014.78 1015.02 1015.21 1015.38 1015.55 1015.74 1015.95 1016.20 1016.46 1016.72 1016.97 1017.18 1017.36 1017.49 1017.59 1017.67 1017.75 1017.84 1017.95 1018.08 1018.24 1018.40 1018.56 1018.70 1018.79 1018.83 1018.81 1018.73 1018.61 1018.46 1018.30 1018.16 1018.04 1017.98 1017.98 1018.05 1018.21 1018.44 1018.76 1019.16 1019.63
1014.16 1014.62 1015.01 1015.33 1015.59 1015.83 1016.06 1016.29 1016.53 1016.77 1017.01 1017.23 1017.41 1017.56 1017.67 1017.74 1017.78 1017.82 1017.87 1017.94 1018.05 1018.19 1018.36 1018.55 1018.73 1018.89 1019.01 1019.08 1019.09 1019.06 1018.98 1018.87 1018.76 1018.65 1018.56 1018.51 1018.50 1018.55 1018.66 1018.83 1019.08 1019.39 1019.77
1014.36 1014.89 1015.35 1015.75 1016.09 1016.40 1016.68 1016.95 1017.20 1017.43 1017.64 1017.80 1017.92 1017.99 1018.02 1018.02 1018.01 1018.01 1018.02 1018.07 1018.17 1018.31 1018.48 1018.67 1018.86 1019.03 1019.17 1019.27 1019.33 1019.34 1019.32 1019.27 1019.22 1019.16 1019.12 1019.10 1019.11 1019.14 1019.22 1019.33 1019.50 1019.72 1019.99
1014.65 1015.23 1015.75 1016.21 1016.63 1017.00 1017.33 1017.63 1017.89 1018.10 1018.27 1018.38 1018.43 1018.43 1018.39 1018.33 1018.27 1018.22 1018.21 1018.25 1018.33 1018.46 1018.63 1018.81 1019.00 1019.17 1019.32 1019.43 1019.52 1019.57 1019.60 1019.62 1019.63 1019.65 1019.67 1019.69 1019.72 1019.77 1019.82 1019.89 1019.99 1020.12 1020.29
1014.99 1015.58 1016.14 1016.66 1017.13 1017.55 1017.92 1018.25 1018.51 1018.71 1018.84 1018.90 1018.90 1018.84 1018.75 1018.65 1018.55 1018.48 1018.46 1018.48 1018.56 1018.68 1018.83 1019.00 1019.17 1019.33 1019.47 1019.59 1019.68 1019.76 1019.84 1019.91 1019.98 1020.06 1020.13 1020.21 1020.28 1020.34 1020.39 1020.44 1020.48 1020.54 1020.63
1015.31 1015.90 1016.47 1017.02 1017.53 1017.99 1018.40 1018.74 1019.01 1019.19 1019.30 1019.33 1019.29 1019.20 1019.09 1018.96 1018.86 1018.79 1018.76 1018.79 1018.86 1018.98 1019.11 1019.26 1019.41 1019.54 1019.66 1019.76 1019.85 1019.94 1020.03 1020.13 1020.24 1020.36 1020.48 1020.60 1020.70 1020.78 1020.84 1020.88 1020.90 1020.91 1020.94
1015.57 1016.14 1016.71 1017.28 1017.81 1018.30 1018.73 1019.09 1019.37 1019.55 1019.65 1019.67 1019.62 1019.52 1019.40 1019.29 1019.19 1019.14 1019.13 1019.17 1019.25 1019.36 1019.49 1019.61 1019.72 1019.82 1019.90 1019.97 1020.03 1020.10 1020.18 1020.28 1020.40 1020.54 1020.68 1020.82 1020.95 1021.04 1021.11 1021.15 1021.16 1021.16 1021.17
1015.78 1016.32 1016.88 1017.45 1018.00 1018.51 1018.97 1019.34 1019.63 1019.82 1019.93 1019.95 1019.90 1019.82 1019.72 1019.63 1019.56 1019.53 1019.55 1019.61 1019.70 1019.80 1019.91 1020.01 1020.09 1020.15 1020.18 1020.20 1020.22 1020.25 1020.30 1020.38 1020.48 1020.61 1020.75 1020.88 1021.01 1021.11 1021.18 1021.23 1021.25 1021.25 1021.26
1015.94 1016.46 1017.01 1017.58 1018.15 1018.67 1019.14 1019.54 1019.84 1020.05 1020.16 1020.20 1020.17 1020.11 1020.04 1019.97 1019.94 1019.94 1019.98 1020.05 1020.15 1020.25 1020.34 1020.41 1020.46 1020.47 1020.46 1020.43 1020.40 1020.38 1020.39 1020.42 1020.49 1020.58 1020.69 1020.80 1020.91 1021.01 1021.08 1021.13 1021.16 1021.19 1021.22
1016.11 1016.60 1017.14 1017.72 1018.29 1018.82 1019.31 1019.71 1020.03 1020.25 1020.38 1020.43 1020.43 1020.39 1020.34 1020.30 1020.29 1020.31 1020.36 1020.44 1020.53 1020.62 1020.69 1020.74 1020.75 1020.72 1020.67 1020.60 1020.53 1020.46 1020.42 1020.41 1020.43 1020.48 1020.55 1020.63 1020.71 1020.78 1020.84 1020.90 1020.95 1021.00 1021.06
1016.31 1016.78 1017.32 1017.88 1018.45 1018.99 1019.47 1019.88 1020.21 1020.43 1020.57 1020.64 1020.65 1020.62 1020.59 1020.56 1020.55 1020.57 1020.62 1020.69 1020.76 1020.83 1020.87 1020.89 1020.87 1020.82 1020.74 1020.64 1020.54 1020.45 1020.38 1020.33 1020.32 1020.32 1020.35 1020.39 1020.44 1020.49 1020.54 1020.59 1020.66 1020.73 1020.83
1016.54 1017.00 1017.52 1018.07 1018.62 1019.14 1019.62 1020.02 1020.34 1020.56 1020.70 1020.77 1020.78 1020.75 1020.71 1020.68 1020.66 1020.66 1020.68 1020.72 1020.76 1020.80 1020.81 1020.80 1020.76 1020.70 1020.61 1020.51 1020.40 1020.30 1020.22 1020.16 1020.12 1020.10 1020.10 1020.11 1020.14 1020.17 1020.21 1020.26 1020.34 1020.43 1020.55
1016.78 1017.22 1017.70 1018.22 1018.74 1019.24 1019.68 1020.06 1020.36 1020.57 1020.70 1020.75 1020.75 1020.71 1020.66 1020.60 1020.55 1020.52 1020.50 1020.50 1020.50 1020.49 1020.48 1020.45 1020.39 1020.32 1020.24 1020.15 1020.06 1019.99 1019.92 1019.87 1019.84 1019.82 1019.81 1019.81 1019.82 1019.84 1019.87 1019.93 1020.00 1020.11 1020.24
1016.98 1017.37 1017.81 1018.27 1018.74 1019.20 1019.60 1019.94 1020.21 1020.39 1020.50 1020.54 1020.52 1020.46 1020.38 1020.30 1020.21 1020.14 1020.08 1020.02 1019.98 1019.93 1019.89 1019.83 1019.77 1019.71 1019.65 1019.59 1019.54 1019.49 1019.46 1019.45 1019.44 1019.44 1019.44 1019.45 1019.46 1019.49 1019.52 1019.58 1019.66 1019.77 1019.91
1017.06 1017.39 1017.77 1018.17 1018.58 1018.97 1019.32 1019.62 1019.85 1020.01 1020.09 1020.12 1020.08 1020.01 1019.91 1019.80 1019.68 1019.57 1019.47 1019.37 1019.29 1019.20 1019.13 1019.06 1018.99 1018.94 1018.90 1018.87 1018.86 1018.86 1018.88 1018.90 1018.94 1018.97 1019.00 1019.02 1019.05 1019.08 1019.12 1019.18 1019.27 1019.38 1019.52
1016.99 1017.25 1017.56 1017.89 1018.23 1018.56 1018.86 1019.11 1019.31 1019.45 1019.52 1019.54 1019.50 1019.43 1019.32 1019.20 1019.07 1018.93 1018.80 1018.67 1018.55 1018.43 1018.33 1018.24 1018.17 1018.13 1018.10 1018.10 1018.12 1018.16 1018.22 1018.28 1018.35 1018.41 1018.47 1018.52 1018.56 1018.61 1018.65 1018.71 1018.79 1018.90 1019.03
1016.77 1016.97 1017.21 1017.48 1017.76 1018.03 1018.28 1018.50 1018.68 1018.81 1018.88 1018.90 1018.88 1018.82 1018.74 1018.62 1018.49 1018.35 1018.20 1018.06 1017.91 1017.77 1017.65 1017.54 1017.46 1017.41 1017.38 1017.39 1017.42 1017.48 1017.56 1017.65 1017.74 1017.82 1017.89 1017.96 1018.01 1018.05 1018.10 1018.15 1018.22 1018.32 1018.43
Thickness
5774 5770 5767 5764 5761 5759 5755 5753 5751 5749 5747 5744 5742 5741 5740 5738 5737 5735 5733 5731 5729 5728 5727 5725 5724 5723 5721 5720 5718 5716 5712 5708 5700 5696 5694 5691 5688 5685 5683 5679 5676 5673 5670
5774 5769 5766 5763 5760 5757 5754 5751 5749 5747 5745 5743 5741 5739 5737 5735 5734 5732 5730 5728 5725 5723 5722 5721 5720 5720 5718 5716 5715 5712 5709 5707 5700 5692 5687 5684 5681 5678 5675 5671 5667 5664 5661
5773 5768 5764 5761 5758 5754 5752 5750 5747 5745 5742 5740 5738 5735 5733 5732 5730 5728 5726 5724 5722 5720 5719 5717 5716 5715 5713 5712 5710 5708 5705 5702 5698 5691 5684 5679 5674 5671 5667 5662 5658 5654 5652
5771 5766 5761 5758 5756 5753 5750 5747 5745 5742 5739 5736 5734 5732 5730 5728 5726 5724 5722 5720 5717 5716 5715 5714 5713 5711 5709 5708 5706 5703 5700 5695 5691 5685 5679 5673 5667 5663 5659 5654 5648 5645 5642
5768 5763 5759 5757 5754 5751 5747 5744 5742 5738 5736 5733 5730 5727 5725 5723 5722 5719 5718 5716 5713 5711 5710 5709 5708 5707 5706 5704 5701 5698 5694 5690 5685 5679 5673 5666 5661 5656 5652 5647 5642 5637 5633
5766 5761 5758 5755 5751 5747 5744 5741 5737 5734 5730 5727 5724 5721 5719 5718 5716 5715 5713 5710 5708 5705 5703 5702 5702 5701 5700 5698 5695 5693 5690 5685 5679 5674 5668 5662 5657 5652 5647 5641 5635 5630 5624
5764 5760 5756 5752 5747 5743 5740 5736 5732 5729 5725 5722 5718 5716 5713 5711 5710 5709 5707 5705 5702 5699 5697 5695 5694 5693 5691 5689 5687 5685 5681 5678 5675 5671 5664 5659 5653 5649 5642 5635 5630 5625 5620
5761 5756 5752 5748 5743 5739 5735 5731 5727 5724 5721 5717 5713 5711 5708 5705 5704 5703 5701 5698 5695 5691 5689 5687 5685 5683 5682 5680 5677 5674 5670 5667 5665 5663 5659 5654 5650 5644 5639 5633 5625 5618 5612
5757 5753 5749 5745 5739 5735 5731 5726 5723 5719 5715 5711 5708 5705 5701 5699 5697 5696 5694 5690 5686 5683 5680 5679 5677 5675 5673 5671 5668 5664 5660 5657 5655 5652 5649 5645 5641 5636 5631 5624 5617 5611 5603
5754 5751 5747 5742 5737 5731 5727 5722 5718 5714 5709 5706 5702 5698 5695 5692 5691 5689 5687 5683 5678 5674 5672 5670 5668 5666 5664 5662 5659 5656 5651 5647 5644 5641 5638 5634 5631 5627 5622 5617 5611 5604 5596
5752 5747 5742 5738 5733 5727 5722 5717 5713 5708 5703 5699 5695 5691 5688 5686 5684 5682 5680 5676 5672 5667 5663 5660 5658 5657 5655 5652 5650 5646 5642 5638 5634 5631 5627 5623 5619 5615 5611 5607 5603 5598 5591
5747 5742 5736 5732 5728 5723 5717 5711 5707 5702 5696 5692 5687 5684 5681 5678 5676 5674 5672 5669 5665 5661 5656 5652 5649 5648 5645 5643 5639 5636 5632 5628 5624 5619 5615 5611 5607 5604 5600 5597 5593 5589 5585
5739 5734 5729 5725 5720 5716 5711 5706 5700 5695 5690 5685 5681 5677 5673 5670 5667 5665 5663 5660 5656 5652 5648 5644 5641 5638 5635 5632 5629 5626 5622 5617 5613 5608 5603 5599 5596 5593 5590 5586 5582 5578 5573
5731 5725 5721 5716 5711 5707 5703 5699 5694 5689 5684 5679 5675 5670 5666 5662 5659 5656 5653 5650 5646 5642 5638 5635 5632 5628 5625 5622 5619 5615 5611 5607 5603 5598 5594 5590 5586 5582 5578 5575 5570 5566 5561
5721 5717 5712 5708 5702 5696 5691 5687 5684 5681 5678 5674 5670 5666 5661 5656 5653 5650 5646 5641 5637 5634 5629 5625 5621 5617 5614 5611 5608 5605 5602 5598 5593 5589 5585 5580 5576 5572 5568 5564 5560 5555 5550
5712 5707 5703 5698 5693 5687 5682 5676 5672 5671 5669 5666 5664 5660 5656 5652 5647 5642 5638 5634 5629 5625 5621 5615 5611 5608 5605 5601 5598 5594 5591 5588 5585 5581 5576 5572 5567 5563 5558 5554 5550 5545 5540
5704 5699 5694 5690 5685 5679 5675 5671 5665 5660 5658 5656 5654 5651 5648 5643 5639 5634 5629 5624 5620 5616 5611 5606 5603 5599 5596 5592 5589 5586 5582 5579 5576 5572 5568 5563 5559 5554 5549 5545 5540 5535 5531
5695 5691 5686 5682 5678 5673 5669 5664 5660 5655 5650 5645 5641 5639 5637 5633 5629 5624 5619 5614 5608 5605 5602 5598 5594 5591 5587 5584 5581 5577 5574 5570 5567 5563 5559 5555 5551 5546 5541 5537 5532 5528 5524
5684 5680 5676 5673 5669 5664 5660 5656 5651 5646 5642 5636 5631 5627 5625 5622 5618 5614 5610 5606 5601 5597 5594 5590 5587 5583 5580 5577 5573 5570 5566 5562 5559 5555 5551 5547 5542 5538 5533 5529 5525 5522 5517
5673 5671 5667 5663 5659 5655 5651 5646 5641 5636 5632 5628 5624 5619 5614 5611 5607 5603 5600 5597 5593 5590 5587 5583 5580 5576 5573 5569 5566 5562 5558 5554 5550 5546 5543 5539 5535 5531 5526 5522 5518 5514 5510
5663 5660 5658 5654 5650 5646 5642 5638 5633 5628 5624 5620 5616 5612 5608 5604 5600 5596 5592 5589 5586 5583 5579 5576 5572 5569 5565 5562 5558 5554 5551 5547 5543 5539 5535 5531 5527 5523 5519 5516 5512 5508 5505
5652 5649 5646 5643 5639 5636 5632 5628 5624 5620 5616 5612 5607 5603 5598 5595 5592 5588 5585 5582 5579 5576 5572 5569 5565 5562 5559 5555 5551 5547 5543 5540 5536 5532 5528 5524 5520 5516 5513 5509 5505 5501 5498
5642 5639 5636 5632 5629 5626 5622 5618 5614 5611 5607 5602 5598 5594 5589 5586 5583 5580 5578 5575 5571 5568 5565 5561 5558 5554 5551 5548 5545 5541 5537 5533 5530 5526 5521 5517 5513 5509 5506 5502 5499 5495 5491
5631 5628 5625 5621 5618 5615 5611 5608 5605 5601 5598 5594 5590 5586 5582 5578 5575 5573 5570 5567 5564 5561 5557 5554 5551 5548 5544 5541 5537 5534 5531 5528 5524 5520 5515 5511 5506 5503 5499 5496 5493 5490 5486
5621 5618 5615 5612 5609 5605 5601 5598 5595 5592 5589 5585 5582 5578 5574 5571 5568 5565 5563 5560 5557 5554 5550 5547 5543 5540 5537 5534 5530 5527 5524 5520 5517 5513 5509 5504 5500 5497 5493 5490 5487 5484 5480
5610 5608 5605 5602 5599 5596 5593 5589 5586 5583 5580 5577 5573 5570 5567 5564 5561 5558 5555 5552 5549 5546 5543 5540 5536 5533 5530 5526 5523 5520 5517 5513 5510 5506 5502 5498 5494 5490 5487 5484 5481 5478 5475